Wind_Speed
13 13 14 14 14 15 16 17 17 17 17 17 15 10 5 5 4 8 15 11 3 4 4 4 4 3 1 0 1 1 1 1 2 2 3 2 1 2 1 1 1 0 0 0 0 1 1 1 1 2 1 2 2 4 7 5 2 1 1 2 2 1 2 2 4 4 3 5 4 2 1 4 5 3 4 2 2 1 3 4 1 1 2 2 2 2 4
13 13 14 15 15 16 16 16 17 18 17 17 15 9 3 5 6 10 16 11 3 4 3 1 2 2 1 2 3 2 2 3 2 2 2 3 1 1 1 1 1 1 1 1 0 1 1 1 2 2 1 1 3 5 7 5 3 3 1 2 4 3 0 2 3 5 6 6 5 4 4 4 3 2 3 3 3 4 1 1 2 1 1 2 2 3 3
13 14 15 15 15 15 16 16 17 17 16 16 15 10 4 3 4 9 16 14 9 7 3 4 3 0 1 3 3 3 2 4 4 2 2 3 2 1 1 1 1 1 1 2 2 2 2 2 2 3 1 2 2 5 6 4 3 4 1 2 2 1 1 2 2 0 3 3 3 4 4 3 2 2 5 5 4 4 2 0 3 1 1 1 2 4 2
14 14 14 15 15 15 16 16 16 15 15 15 14 11 5 3 2 4 10 16 18 14 8 5 4 3 2 3 3 3 2 2 4 3 3 5 4 2 2 2 1 2 4 3 3 3 3 1 2 3 3 3 2 5 5 4 7 7 3 2 2 2 2 2 4 4 3 4 4 4 2 2 2 4 7 7 4 3 3 3 2 1 1 3 2 4 2
14 14 14 15 15 15 15 15 15 14 14 14 13 11 6 4 2 2 3 8 12 13 12 10 5 2 2 2 1 3 2 2 3 4 3 4 5 3 3 4 3 3 4 4 2 4 4 3 3 2 3 4 4 5 2 3 11 9 2 3 3 3 3 3 4 2 2 3 3 4 3 4 2 3 6 7 7 6 6 4 0 2 2 3 2 2 2
13 14 15 15 15 16 15 15 15 14 14 13 11 10 8 4 2 3 3 2 2 5 8 9 8 5 3 2 1 3 4 4 3 3 3 4 6 4 3 6 6 3 2 2 2 5 5 4 2 1 2 4 5 6 2 3 13 11 3 4 4 5 2 2 3 2 4 2 3 3 4 4 3 3 4 6 7 7 6 2 2 2 1 4 2 1 4
15 15 15 16 16 16 16 15 15 14 13 13 11 9 7 6 5 5 6 4 2 2 4 4 7 8 5 3 3 3 5 5 2 2 3 4 6 6 4 6 8 4 2 2 2 4 3 2 2 1 2 3 3 4 3 4 12 12 5 4 4 3 1 1 2 2 4 4 4 3 4 4 3 5 4 4 5 5 4 0 2 0 3 5 2 4 5
15 16 16 16 16 16 16 16 16 15 13 12 12 10 7 6 5 5 8 8 7 6 5 3 4 6 5 4 3 2 4 5 3 3 4 3 5 6 4 5 6 2 3 4 3 1 1 2 3 1 1 3 2 2 1 3 9 10 4 2 4 4 2 1 3 2 4 3 4 4 3 4 4 4 4 4 4 4 3 2 2 2 4 4 4 5 4
15 16 15 16 16 16 17 16 15 16 14 12 12 11 9 7 5 5 7 5 8 8 5 4 3 3 5 4 2 3 3 3 2 2 5 3 1 3 2 4 3 2 5 6 2 3 0 3 2 1 2 2 2 1 1 2 5 6 4 3 4 4 3 2 4 2 4 3 3 2 2 3 3 3 5 5 4 2 2 3 2 2 5 5 6 5 3
15 15 15 15 16 16 16 16 15 16 14 13 12 10 9 7 5 4 5 4 7 7 4 4 4 2 3 3 2 2 3 3 1 2 3 4 4 3 3 2 1 3 5 5 3 3 3 3 3 3 4 5 8 8 7 6 3 2 2 2 3 2 2 3 4 1 3 4 2 1 2 4 3 3 4 4 2 2 3 4 4 3 3 3 4 3 2
14 15 15 15 16 15 15 15 15 15 14 13 13 11 9 8 5 3 4 4 7 9 5 4 5 1 2 4 2 1 4 5 3 3 1 2 5 6 6 3 2 3 4 4 3 5 8 9 9 11 11 12 14 14 14 14 12 6 2 0 1 3 3 2 2 1 3 5 3 2 3 3 4 1 2 4 2 3 5 8 7 3 1 1 2 3 5
14 15 15 15 15 15 15 15 15 15 15 14 13 11 10 9 6 4 5 5 4 9 6 4 3 2 5 7 2 1 4 5 3 3 1 1 5 8 9 7 4 3 3 4 7 10 11 11 10 10 11 11 11 15 18 16 14 14 11 4 1 4 4 1 1 2 3 4 5 5 2 4 5 2 4 4 1 2 6 7 3 3 4 4 5 6 8
14 15 15 15 15 15 15 15 15 15 15 14 14 12 11 10 8 6 8 8 3 6 4 2 3 5 7 9 6 1 3 3 1 2 3 3 5 9 11 9 5 3 2 5 8 7 5 4 4 2 2 3 4 9 13 11 10 16 18 11 4 3 3 1 1 1 2 3 4 2 4 2 1 1 6 6 3 4 7 4 1 3 4 5 5 7 9
14 14 14 14 14 14 14 15 14 15 15 14 14 14 12 11 9 6 7 8 3 4 4 2 4 8 8 10 9 3 3 5 4 3 5 5 6 9 11 8 4 4 3 6 5 2 1 2 3 3 4 5 5 4 4 5 6 10 13 14 10 4 3 2 2 1 1 1 2 4 2 3 2 2 4 5 2 3 5 2 1 1 3 4 5 7 10
14 14 14 13 14 14 14 14 15 15 15 14 15 15 13 11 10 8 8 11 9 5 8 3 3 6 6 7 9 6 3 5 4 3 4 6 6 7 10 9 5 4 3 4 3 2 1 1 3 3 3 3 3 3 3 2 3 5 8 13 13 8 4 3 2 2 2 2 2 4 4 3 2 1 2 7 7 5 3 1 1 1 5 8 7 7 12
13 13 14 13 14 14 14 15 16 15 15 15 15 14 13 11 12 9 7 11 10 4 7 4 2 4 5 5 8 7 4 3 4 2 3 4 5 6 9 8 6 4 3 2 2 4 3 1 2 2 1 1 1 2 3 3 4 4 6 11 12 8 5 5 4 3 3 3 1 2 2 3 3 2 5 12 12 6 1 1 2 1 5 10 10 11 14
13 13 13 14 14 15 15 15 16 16 15 15 14 14 13 12 13 11 9 15 16 7 4 5 4 4 5 4 4 6 5 4 3 2 2 2 3 6 8 7 5 5 5 3 2 4 5 3 2 2 1 1 0 2 3 2 3 6 7 8 9 7 5 5 5 3 1 2 1 3 3 2 2 3 9 16 11 2 3 4 4 3 8 13 14 15 16
13 13 14 14 14 15 15 15 16 15 14 14 14 14 13 13 13 10 9 18 19 8 6 11 9 5 6 5 3 4 5 4 3 2 2 1 3 7 8 6 6 6 6 4 2 3 4 2 2 3 1 2 2 1 1 2 2 4 5 5 4 4 3 3 4 3 2 1 1 4 3 1 2 6 13 15 8 2 3 4 5 8 15 17 16 16 16
14 13 14 14 14 15 15 15 16 15 14 15 15 14 14 15 15 12 10 18 22 12 8 14 14 10 10 8 6 6 6 5 5 3 1 2 6 8 5 4 6 6 5 4 3 2 3 2 1 2 1 3 2 2 1 1 0 1 2 3 3 2 3 3 2 2 2 1 1 4 4 1 4 11 13 9 4 2 3 6 9 15 19 18 16 18 17
14 14 14 14 14 15 15 15 16 15 15 18 17 14 15 16 15 13 9 17 29 25 16 16 17 15 15 13 11 10 9 7 6 4 3 2 8 8 1 2 7 7 4 4 3 1 2 1 2 1 2 1 1 1 1 1 1 1 1 0 1 0 1 3 2 1 1 2 2 3 3 2 6 10 7 4 3 4 8 12 15 16 16 16 17 18 16
14 14 14 14 15 15 15 15 17 16 17 20 16 12 15 18 18 17 10 11 25 26 18 17 19 18 18 18 16 15 14 11 9 7 5 6 9 7 4 1 5 4 2 2 2 0 1 2 1 1 1 1 1 1 0 1 3 3 1 2 1 2 1 1 3 2 2 1 1 1 2 3 7 6 3 2 4 7 11 14 15 15 14 15 17 17 16
14 14 14 14 15 15 15 16 17 17 19 20 16 13 17 19 19 17 10 11 25 28 20 20 22 21 20 19 19 19 18 16 13 11 8 9 10 10 6 3 4 4 2 2 2 0 1 2 1 1 1 0 1 1 1 1 2 3 0 2 1 2 3 2 3 2 2 4 7 4 3 7 10 7 6 7 8 9 11 12 14 15 15 16 17 18 20
14 14 15 14 14 15 15 16 17 17 19 19 17 16 19 19 17 14 9 14 30 33 24 21 21 20 21 21 19 19 19 18 17 15 11 9 9 9 8 6 4 3 2 3 2 2 3 3 2 3 2 1 2 2 1 0 2 3 1 1 2 2 2 2 2 3 6 8 10 7 7 11 13 10 7 7 9 11 13 14 14 15 15 16 17 20 22
14 14 14 14 14 15 15 16 17 17 18 19 18 18 18 16 14 12 9 13 23 24 19 19 18 17 18 19 18 18 18 17 16 16 14 11 8 7 7 6 5 4 4 4 3 4 4 3 3 3 2 1 2 3 1 1 3 2 1 1 2 1 2 1 1 1 4 3 3 4 10 17 17 10 6 8 12 15 16 16 15 15 16 17 19 22 24
14 14 14 14 14 14 15 16 17 17 18 19 18 18 17 15 13 10 9 12 17 17 12 12 15 16 16 16 17 17 16 16 15 15 15 13 10 7 7 7 6 5 5 5 5 4 5 4 3 3 2 2 2 1 2 2 1 2 2 2 2 1 2 2 1 1 2 5 8 11 18 20 13 7 7 13 17 19 18 17 17 17 17 19 22 24 25
13 14 14 14 13 13 14 15 16 17 18 18 18 17 16 16 14 12 10 12 17 19 13 8 10 14 14 14 15 15 14 15 15 15 14 13 12 9 7 6 7 7 7 7 6 5 6 6 4 2 2 2 2 2 3 2 1 2 1 3 3 2 1 2 1 1 4 7 9 13 15 12 5 5 12 18 20 20 19 18 18 18 19 22 25 25 23
13 14 14 14 13 12 12 13 15 17 18 18 17 17 16 16 14 11 9 7 8 10 9 6 8 13 14 13 13 13 13 14 14 14 14 13 12 11 8 5 5 5 5 5 5 4 5 5 3 2 2 3 3 3 2 2 2 2 1 4 5 2 1 2 1 3 3 4 7 9 8 7 8 12 19 21 21 20 19 19 19 19 21 24 26 25 23
12 13 14 14 14 13 12 11 12 14 15 16 16 16 17 17 16 14 13 11 7 10 14 13 10 10 11 11 11 11 11 12 12 12 13 12 12 12 10 7 4 2 1 2 3 4 5 4 3 2 3 3 3 2 1 1 1 1 3 6 8 6 5 5 3 3 6 9 14 13 10 12 16 19 20 21 22 21 19 18 19 19 22 25 25 24 23
12 12 13 13 14 14 13 11 9 8 8 10 12 14 17 20 18 15 14 12 9 14 22 19 10 7 7 7 8 9 8 9 10 11 11 10 11 10 9 8 6 4 3 4 5 6 6 5 5 3 1 1 2 1 1 1 0 2 4 7 9 8 8 8 7 8 11 15 18 17 15 17 20 20 21 21 21 20 18 18 19 20 23 25 23 22 21
11 12 12 12 13 14 14 12 10 8 6 6 6 9 13 17 17 14 12 10 6 8 15 14 7 6 7 7 7 6 6 6 6 7 8 8 8 8 8 6 6 5 5 5 5 6 6 5 5 3 1 1 2 2 2 2 2 4 5 7 8 8 9 10 10 11 13 16 18 19 20 21 20 19 20 20 20 19 18 18 19 21 23 23 21 19 18
10 11 11 11 12 13 13 13 12 11 11 10 9 7 7 9 11 12 11 9 7 6 10 12 10 6 5 7 7 5 4 4 4 4 4 4 5 6 6 5 4 4 4 5 6 5 5 3 3 3 2 1 1 3 3 3 2 5 5 6 7 8 9 10 12 14 16 18 20 21 20 18 17 17 19 20 21 20 19 18 19 22 23 21 18 17 17
9 10 10 10 11 12 12 13 12 11 12 15 17 15 11 9 9 10 11 10 7 5 6 9 7 3 1 4 7 6 4 2 3 3 2 3 3 3 4 4 4 4 4 4 5 4 3 2 2 3 2 0 1 2 4 3 3 5 4 4 5 7 9 10 13 15 17 18 19 18 17 16 16 18 21 22 21 19 18 19 21 23 23 20 17 17 17
8 9 9 9 10 11 11 12 11 9 10 15 18 19 17 15 12 9 9 9 9 6 5 5 4 2 1 2 5 8 6 2 3 4 2 2 3 2 2 3 3 4 4 3 2 2 2 2 2 1 1 1 1 3 2 3 7 7 5 5 6 7 9 11 14 16 17 18 18 17 17 18 20 22 22 21 20 19 19 21 23 23 21 18 17 17 17
7 8 8 8 9 9 10 10 9 8 9 12 14 16 18 18 16 13 8 6 6 7 8 6 4 2 2 0 2 7 9 5 4 5 3 2 3 3 2 2 1 2 3 3 2 2 2 1 0 0 1 0 1 1 2 6 8 8 7 7 8 8 10 13 15 16 17 18 18 17 18 20 21 22 22 20 18 19 20 21 22 22 19 17 17 17 18
6 7 7 7 7 7 7 8 8 7 7 8 11 12 13 14 17 17 13 8 6 5 6 7 5 2 3 2 1 6 11 8 5 6 5 3 4 4 3 2 1 1 1 0 1 1 1 1 1 1 1 1 1 2 5 6 7 8 9 10 10 10 12 14 15 16 17 19 18 18 18 19 21 21 20 19 18 19 21 22 21 20 19 18 17 17 18
6 6 6 6 6 6 6 6 5 5 6 7 7 7 7 8 11 14 14 13 12 8 5 5 5 3 1 1 2 7 10 8 6 6 5 4 4 3 3 2 0 0 2 1 1 1 1 1 1 2 1 0 2 5 6 6 8 9 10 10 11 11 13 15 16 17 19 19 18 18 18 19 20 20 19 18 18 20 21 21 20 19 18 18 17 17 18
5 5 4 4 4 4 4 5 4 4 5 5 4 4 5 4 4 6 9 13 16 14 11 7 4 2 1 2 4 8 10 7 6 5 4 4 4 3 2 2 0 1 3 2 1 1 1 1 1 1 2 4 6 7 6 7 9 10 10 10 11 12 14 16 17 19 20 19 18 17 18 19 20 19 18 18 18 19 20 20 19 18 19 19 18 18 19
5 5 4 3 3 2 2 3 4 3 3 4 3 3 5 5 3 3 8 11 11 12 13 9 5 3 3 2 5 8 8 6 5 4 3 4 4 2 1 2 1 1 2 2 1 1 1 1 1 0 5 9 9 8 7 8 9 9 9 10 10 12 14 16 18 19 19 19 18 18 18 19 20 18 17 18 19 19 20 19 18 18 18 18 18 19 20
4 4 4 4 3 2 2 2 3 3 3 4 3 2 4 5 4 3 7 8 6 7 10 8 4 4 4 3 4 6 7 5 5 3 2 3 3 2 1 2 1 1 2 1 1 1 1 2 2 2 5 7 6 6 6 7 7 8 8 9 10 12 15 17 19 19 18 18 18 18 19 20 20 18 18 19 20 20 19 19 18 18 18 18 18 19 20
3 3 3 3 4 4 3 2 2 2 2 3 3 2 4 6 5 3 4 5 3 4 6 6 4 4 5 4 3 4 6 6 4 3 2 2 2 2 1 1 1 1 1 2 1 1 0 2 2 1 3 5 5 4 5 6 6 7 8 9 10 13 16 18 20 19 18 18 18 18 19 19 18 18 18 19 20 19 19 18 18 18 19 19 18 19 20
2 2 3 2 3 4 4 3 3 2 2 2 3 3 3 4 4 4 4 3 1 2 5 6 5 5 5 5 4 5 5 6 4 3 3 2 2 1 1 1 1 1 1 3 2 2 2 0 1 3 5 5 4 3 6 6 6 7 8 9 11 14 17 19 19 19 18 18 18 19 19 18 18 18 18 19 19 19 18 17 17 18 18 19 19 19 20
2 2 2 2 2 2 3 4 4 2 1 2 3 2 1 2 2 3 3 1 2 3 5 5 5 6 8 8 6 6 5 5 4 2 2 2 2 1 0 0 1 1 2 3 1 3 2 1 3 5 6 5 3 5 7 7 7 7 8 9 12 15 17 19 19 18 18 18 18 19 19 18 18 18 19 19 19 19 18 17 17 17 17 18 18 18 20
2 1 1 1 3 3 3 3 5 4 2 3 2 2 2 3 1 1 2 2 3 2 3 5 6 7 8 7 6 5 5 4 4 2 1 2 3 1 2 2 1 0 1 1 2 2 1 3 4 4 4 3 4 7 8 7 7 8 8 10 14 16 17 18 18 17 18 18 18 19 19 18 18 19 18 18 19 19 18 18 17 16 16 17 17 17 18
3 3 2 2 3 4 3 2 4 4 2 2 1 0 1 3 2 2 2 3 3 2 4 7 7 7 7 6 5 4 3 2 2 2 2 3 2 1 1 1 2 2 1 2 1 1 3 5 6 7 6 5 7 9 9 8 8 8 9 11 14 16 17 18 18 17 18 18 18 19 19 18 18 19 18 18 18 18 18 18 18 17 17 17 17 17 18
4 3 2 1 3 6 3 1 2 3 1 1 1 3 3 3 3 4 3 4 4 5 7 9 9 8 7 6 4 2 2 2 2 2 1 2 2 0 1 2 1 1 2 1 1 2 3 4 6 6 6 8 9 10 9 8 8 8 9 12 14 16 17 18 18 17 17 17 18 18 18 18 19 19 18 18 18 18 17 17 17 17 17 17 17 17 17
4 3 2 1 1 4 3 0 1 1 1 3 4 5 5 5 5 4 5 6 6 7 9 10 9 8 7 5 3 2 2 2 1 1 1 1 0 2 2 1 1 2 2 1 2 3 4 5 5 5 7 9 10 9 9 8 8 8 10 12 14 16 17 17 18 18 17 17 17 18 18 18 18 19 19 18 18 18 17 16 16 16 17 17 17 17 17
4 3 2 1 0 1 1 1 2 2 3 4 6 6 7 7 7 7 7 8 8 8 9 9 8 7 5 3 2 3 2 1 1 1 0 1 1 2 2 1 0 1 1 2 4 5 5 4 5 7 9 11 10 9 9 8 8 8 10 12 13 15 16 17 18 18 17 17 17 17 17 17 18 18 18 18 18 18 18 17 16 16 16 17 17 17 17
4 3 2 0 2 2 2 2 4 5 6 7 8 8 9 10 9 8 8 8 8 8 9 8 6 4 3 2 1 2 1 1 0 2 1 0 0 2 2 2 2 2 2 4 5 5 3 6 10 11 12 11 11 10 9 9 8 9 10 12 13 15 16 17 17 17 17 17 17 16 17 17 17 17 18 18 17 18 18 18 17 17 16 17 18 18 17
4 3 1 1 2 2 3 4 5 7 8 9 10 10 11 12 11 10 9 9 8 8 8 7 4 2 2 1 1 1 1 1 1 0 1 1 1 1 1 0 3 4 3 5 6 6 7 11 14 14 13 12 11 10 10 9 9 10 11 12 13 15 16 17 17 17 17 17 17 16 17 17 16 17 17 17 17 17 18 18 17 17 16 17 18 18 17
4 4 2 2 1 2 4 4 4 5 7 8 9 10 11 12 11 10 9 8 7 6 5 4 2 1 0 1 2 1 1 2 1 1 0 1 2 2 1 2 4 5 5 6 7 8 12 14 15 14 14 13 12 11 11 11 10 11 11 12 14 15 16 17 17 17 17 17 17 17 17 17 16 16 17 17 17 17 17 17 18 18 17 17 18 18 18
4 3 4 4 4 4 4 3 4 6 8 8 8 8 9 10 9 9 8 7 6 3 2 1 0 1 2 1 1 0 1 1 2 1 2 3 3 3 2 4 7 7 6 7 10 13 15 16 16 15 14 13 12 12 12 11 11 12 12 13 14 15 16 16 17 17 17 17 17 17 17 17 17 17 17 16 17 17 16 16 18 18 18 17 18 18 18
4 4 5 6 7 8 7 7 8 9 9 9 8 8 8 8 8 8 7 7 5 3 3 2 1 2 1 1 1 1 1 0 0 1 3 4 4 6 6 8 9 9 12 15 16 17 17 18 17 16 14 14 13 13 12 12 12 13 13 13 14 15 15 16 17 17 17 18 17 17 17 17 17 17 17 16 17 17 16 15 17 18 18 17 18 18 18
Wind_Direction
357 359 359 358 358 357 355 355 355 356 356 358 1 4 24 58 51 9 6 5 19 76 58 9 21 58 81 96 73 32 29 32 21 18 14 5 6 18 49 79 54 137 196 311 242 294 276 213 21 0 327 353 345 339 355 357 334 32 20 315 348 37 65 14 298 295 315 313 329 11 38 62 68 35 30 50 336 14 155 184 201 273 320 9 61 301 269
2 359 357 356 356 354 353 354 354 356 358 0 4 7 39 62 51 30 19 12 36 94 87 86 40 344 318 65 39 22 46 47 26 5 6 10 37 44 31 67 34 342 142 104 264 294 1 13 22 46 44 345 350 353 7 16 18 36 58 309 350 345 321 46 1 341 346 343 350 350 346 31 50 6 6 19 5 9 356 171 55 23 272 83 130 261 273
0 357 355 353 353 353 353 355 355 357 360 2 7 12 24 50 51 40 33 37 68 88 102 131 126 165 44 51 18 2 39 43 36 46 45 33 47 71 3 326 328 340 50 54 354 0 35 346 359 42 8 310 352 10 14 26 22 9 294 266 340 331 190 74 78 10 314 310 311 312 316 347 24 10 359 7 29 19 337 309 51 16 283 55 160 223 267
359 356 356 355 357 358 358 359 360 2 4 5 10 15 23 52 40 17 28 46 63 70 65 79 113 135 94 60 18 18 33 17 27 48 57 30 24 40 2 328 324 21 32 28 354 356 18 18 37 32 341 291 304 355 4 21 9 357 340 342 33 103 56 52 124 155 218 237 263 291 322 8 347 345 353 359 2 6 60 89 64 154 291 329 224 199 288
2 2 4 4 5 5 4 5 6 7 10 10 13 21 35 60 40 349 8 36 53 58 47 47 71 116 104 89 11 0 340 318 13 38 43 24 19 36 52 33 26 7 11 23 352 331 351 29 48 18 309 280 300 337 0 26 5 360 18 16 37 94 30 17 101 102 262 240 297 328 39 74 53 5 359 359 355 14 69 81 290 133 78 308 250 189 299
12 13 14 13 13 13 11 11 11 12 16 17 19 30 41 64 88 65 59 31 33 42 27 35 58 58 62 99 40 8 9 5 18 8 358 24 26 25 42 30 22 355 337 20 354 338 351 14 10 311 318 314 327 343 342 15 7 12 42 20 50 111 42 344 111 42 328 357 7 15 77 85 64 49 20 6 15 37 71 101 215 122 104 270 267 328 298
22 21 21 19 18 17 16 17 16 17 21 21 28 42 53 83 98 76 76 90 85 54 356 14 55 44 35 60 41 27 31 25 17 337 350 9 14 25 33 356 353 345 338 71 60 354 356 345 315 306 354 343 354 3 337 330 359 13 38 20 41 107 6 327 113 40 354 14 10 26 90 103 67 42 27 13 28 48 66 126 230 277 266 260 321 330 300
26 24 23 20 20 20 19 21 21 22 23 24 36 50 59 83 97 93 96 83 44 27 7 9 60 37 25 44 31 28 46 23 359 15 29 7 348 18 29 327 330 354 37 70 102 284 234 218 262 236 61 356 0 22 342 302 343 6 29 350 7 38 348 336 83 35 326 355 31 34 69 110 101 51 23 12 16 37 46 10 351 345 293 289 344 320 291
27 25 24 21 22 21 21 22 22 23 25 26 39 53 61 76 96 109 106 68 10 9 16 32 77 41 15 23 357 4 28 6 334 30 47 64 28 11 348 302 317 32 42 56 64 300 236 173 237 209 117 54 48 40 6 282 318 354 21 344 358 29 8 9 58 39 297 328 50 31 2 80 96 31 3 0 0 15 11 343 323 284 286 305 330 316 286
28 26 26 23 23 23 22 22 22 23 26 28 39 53 56 65 87 100 104 69 9 7 7 23 58 64 355 359 345 353 359 347 59 95 44 57 63 15 335 302 24 49 33 32 11 0 53 81 48 67 109 96 84 79 67 59 31 345 4 14 23 60 68 37 44 29 287 322 0 260 333 357 315 312 343 326 314 15 350 316 297 271 271 293 299 299 325
28 27 27 24 24 24 22 23 24 25 27 30 39 50 49 55 75 84 100 91 13 10 23 36 42 43 337 352 343 357 18 17 56 99 48 15 41 25 4 4 89 81 36 17 40 77 83 80 78 92 106 99 88 80 69 60 53 40 18 1 56 67 84 84 49 28 280 301 344 40 29 338 262 226 11 288 253 63 357 315 306 316 59 66 306 331 346
28 27 26 24 24 24 23 26 27 27 31 34 37 44 45 51 61 56 85 107 14 13 48 68 34 16 1 5 0 299 12 19 44 83 105 36 42 36 22 23 64 84 43 69 101 104 96 88 87 95 98 95 84 68 58 51 43 39 41 58 99 52 55 89 91 64 283 309 22 27 323 250 210 140 22 335 185 70 335 306 304 32 44 36 4 346 338
27 25 24 23 23 24 24 27 28 29 34 35 37 43 45 49 57 65 85 100 52 5 50 86 33 33 20 15 23 17 16 34 55 78 83 73 53 42 30 32 60 75 87 133 127 110 95 80 69 52 28 26 35 47 48 43 32 32 35 40 51 71 74 85 89 58 334 7 31 327 265 240 184 44 10 6 30 11 340 324 73 41 36 35 355 326 322
24 23 24 23 23 25 25 28 31 31 33 36 37 40 41 44 54 63 82 96 80 357 44 80 5 13 11 8 11 2 18 41 60 82 68 58 62 48 34 38 63 64 99 158 159 102 79 67 38 347 329 356 3 7 25 40 40 36 31 30 37 72 108 55 36 48 52 44 279 278 320 4 354 4 7 359 341 326 332 321 235 37 47 23 342 314 319
23 23 25 25 25 28 28 30 32 31 32 35 35 35 37 43 49 58 88 113 119 56 38 38 325 333 334 355 12 11 11 26 32 62 63 64 72 45 25 34 53 50 87 152 152 77 94 89 49 18 348 7 2 318 322 3 23 42 47 39 38 52 75 71 62 41 60 68 323 334 358 334 281 217 343 339 324 298 282 251 254 33 21 355 338 324 327
23 24 26 28 29 31 31 32 34 32 32 34 33 33 35 40 46 56 90 116 118 67 6 7 8 344 327 347 24 26 11 357 355 2 25 41 52 33 16 25 40 37 55 120 101 71 65 83 114 100 348 297 250 299 336 355 325 335 31 41 38 38 48 75 75 36 46 74 11 305 257 257 240 219 315 333 327 303 291 355 295 314 353 345 342 338 335
24 26 29 31 33 33 33 33 34 32 32 35 34 31 34 45 56 66 90 97 95 85 13 29 50 23 2 353 14 18 1 343 356 11 350 349 11 13 8 15 27 24 25 34 49 61 60 58 79 70 314 261 150 320 329 23 348 321 339 12 25 21 9 33 51 39 50 89 287 253 235 242 211 241 313 329 329 334 42 347 290 292 344 346 347 342 338
28 30 34 36 36 35 35 35 36 34 34 37 36 34 39 53 62 66 89 97 94 84 48 61 64 50 48 40 10 10 3 352 352 313 287 10 9 349 349 10 25 9 7 36 62 63 66 54 50 74 273 286 45 44 325 23 4 311 319 345 9 10 353 28 69 60 25 67 265 280 278 232 258 306 322 330 336 46 48 309 290 331 342 342 343 338 335
32 34 38 39 39 38 37 38 39 36 37 41 39 39 48 58 67 69 82 97 99 93 69 72 69 61 65 60 43 45 39 26 22 4 22 48 355 334 329 22 26 5 3 52 77 82 76 41 320 114 107 316 351 89 71 38 297 298 347 357 359 9 345 350 55 45 14 106 195 299 291 226 324 325 329 347 3 346 310 308 320 334 335 331 331 332 332
37 38 42 41 41 42 40 43 44 39 41 44 37 40 58 65 71 71 68 92 99 95 80 74 72 67 68 64 57 58 51 40 41 50 91 14 339 343 40 13 356 357 10 45 58 89 92 58 294 92 93 311 311 105 54 354 319 326 52 178 241 187 330 324 306 250 349 9 352 319 284 279 345 337 340 40 52 294 307 320 323 326 325 321 323 328 330
40 41 44 42 43 46 44 47 49 42 45 47 32 33 67 72 71 72 68 89 98 95 83 77 76 70 67 64 61 61 56 52 57 62 64 28 6 30 117 228 343 6 25 68 78 85 115 136 230 49 111 248 7 73 139 351 335 320 151 152 214 198 164 300 272 212 91 43 305 240 244 320 355 349 313 303 298 296 311 317 315 318 319 317 322 327 326
43 43 45 44 45 50 50 51 52 44 47 50 34 37 71 78 75 77 78 84 91 93 90 84 78 71 69 66 61 60 58 56 59 61 62 54 47 65 98 106 53 59 62 77 88 102 133 127 119 94 111 56 32 97 134 86 329 298 291 106 196 214 185 200 235 230 200 230 251 267 310 336 343 329 288 285 298 310 321 317 311 313 314 315 322 325 324
45 44 46 47 50 56 57 56 55 49 50 53 45 47 69 81 82 82 80 83 89 89 84 79 77 69 66 66 63 60 58 56 55 55 60 67 67 68 70 68 65 63 47 56 89 145 139 135 138 128 133 139 109 108 101 97 252 251 192 139 196 180 135 138 186 283 286 265 261 273 304 325 330 318 294 304 321 326 329 324 316 313 313 316 323 324 325
46 46 48 51 57 63 63 59 57 53 53 56 53 52 64 77 85 85 80 85 92 90 76 67 69 67 63 64 64 61 58 56 56 54 55 62 70 66 60 62 71 72 68 76 104 125 117 121 133 115 108 166 135 112 115 235 241 200 132 310 276 177 147 186 207 318 320 287 253 281 312 321 323 311 296 325 334 329 327 324 317 314 316 319 325 327 328
48 50 52 56 63 69 67 61 58 56 56 58 57 57 62 70 75 77 80 87 95 99 90 67 62 66 68 65 62 61 58 56 57 55 53 55 61 68 67 67 73 81 83 85 99 111 102 102 121 115 116 164 184 168 166 197 231 163 158 280 290 165 182 242 227 207 258 266 277 298 310 312 310 299 309 327 329 324 321 319 315 315 317 321 326 328 328
52 54 55 60 67 71 68 62 59 59 59 59 58 57 60 66 70 74 83 89 88 89 91 82 66 68 70 65 62 61 60 59 56 54 54 53 55 65 74 72 73 82 89 87 90 98 96 95 100 103 116 152 175 176 180 186 154 128 193 232 202 172 223 218 196 269 273 273 291 312 318 311 289 294 315 319 320 319 317 315 314 315 318 322 326 328 329
56 58 59 63 69 70 66 60 59 61 61 59 58 58 58 62 68 68 66 71 76 80 91 111 98 80 70 65 65 63 60 60 56 51 52 53 53 59 66 73 83 92 95 91 89 85 82 85 83 82 118 140 130 123 146 175 142 120 263 225 187 184 233 169 113 333 290 275 307 324 320 296 287 303 312 314 316 317 314 311 313 316 320 324 327 329 330
60 62 64 66 68 66 62 56 55 61 65 64 61 60 59 61 64 64 62 60 73 104 116 123 115 92 72 59 61 61 57 57 54 48 48 49 50 54 56 56 68 98 126 126 106 76 66 79 100 107 127 137 117 91 72 70 70 342 263 214 194 199 205 183 180 249 256 277 301 306 290 281 292 304 310 311 313 313 310 310 313 318 324 327 329 329 329
62 64 66 68 68 64 58 53 52 59 69 68 60 54 53 52 50 54 62 59 60 95 108 109 99 82 73 58 54 56 52 48 47 45 43 43 46 48 49 49 54 66 91 109 101 82 79 100 119 112 108 163 180 226 35 76 344 272 232 208 207 219 228 224 225 241 263 286 301 303 293 291 298 305 308 309 310 310 308 311 315 321 326 328 328 327 327
63 67 68 68 68 66 60 55 54 57 67 70 52 41 45 48 42 41 55 60 49 82 104 107 97 84 83 68 51 45 40 36 37 36 35 39 45 44 43 49 55 62 80 95 92 90 98 108 112 106 74 111 171 174 132 131 238 259 232 214 221 234 243 247 248 255 274 293 302 302 298 297 301 304 307 309 310 309 308 310 315 321 326 327 325 325 324
63 69 70 68 69 69 65 61 59 63 71 74 65 50 47 48 41 37 45 56 58 77 98 103 107 112 92 64 49 37 28 23 15 11 15 24 38 43 40 46 56 61 78 90 89 98 113 112 116 136 127 82 137 154 136 136 255 277 246 220 232 247 252 258 263 266 278 295 305 305 301 299 301 304 308 310 310 308 307 308 315 322 326 326 325 325 324
65 69 71 72 69 67 67 65 62 65 73 74 71 69 65 57 48 43 44 49 53 72 97 99 102 122 100 55 42 26 21 26 8 352 341 357 15 28 25 31 47 52 63 82 85 85 94 98 113 142 159 306 124 118 108 134 222 254 246 230 252 263 260 265 271 274 284 300 308 306 301 301 303 306 309 310 308 306 306 310 317 322 325 326 327 326 326
68 69 70 73 70 66 67 66 62 63 69 72 72 69 63 56 50 45 46 49 50 54 74 92 100 96 82 87 43 20 15 10 350 349 343 346 357 353 343 3 32 39 31 46 84 94 106 124 120 127 218 272 110 103 115 221 235 247 262 266 269 267 265 272 278 281 291 305 309 303 298 301 306 309 310 310 307 305 306 310 316 320 323 325 327 326 325
69 69 72 72 70 68 69 66 63 63 68 73 74 68 61 57 52 47 47 47 44 50 57 68 98 100 5 30 60 18 10 1 344 346 341 324 343 344 320 308 330 26 28 41 93 111 123 146 116 188 219 281 50 84 237 251 253 257 263 268 273 274 274 279 285 288 297 306 307 301 297 300 304 308 309 307 304 302 304 309 314 318 323 327 328 326 327
68 70 72 71 68 68 67 64 64 66 66 71 72 66 61 58 52 49 48 44 44 60 54 47 66 85 7 352 345 356 357 355 345 340 331 307 317 332 328 316 311 39 13 9 149 130 113 111 286 249 226 297 319 230 237 261 275 274 270 272 277 278 278 283 291 297 303 308 307 302 300 301 304 308 309 305 302 303 306 311 316 320 324 327 328 328 329
69 69 70 70 68 64 61 59 61 60 61 67 68 61 56 55 50 48 47 46 53 69 74 56 64 87 37 293 286 329 344 346 335 330 327 313 308 315 326 333 4 319 326 314 168 144 136 170 241 269 252 165 228 226 239 274 289 288 285 284 284 285 287 291 297 302 305 307 305 302 302 303 307 310 308 304 303 305 308 314 319 321 323 326 328 329 332
67 65 65 66 61 52 49 47 44 48 56 58 59 53 39 30 35 37 35 40 49 56 64 76 86 51 347 260 295 326 336 333 327 331 337 333 319 304 324 7 12 294 324 339 107 146 176 185 211 254 231 230 235 240 259 286 293 293 295 295 294 295 295 296 300 304 306 306 305 304 305 307 309 310 306 303 304 306 311 317 322 323 324 327 329 331 333
65 60 58 54 40 32 41 39 34 44 48 32 30 38 23 14 19 22 20 29 41 44 46 62 82 31 354 288 307 334 338 330 332 344 358 355 341 321 352 30 32 297 315 307 252 236 291 354 61 275 255 256 254 254 268 285 291 294 299 301 301 302 300 300 304 306 306 305 307 309 310 310 311 311 307 306 308 313 317 321 323 324 325 327 329 330 332
63 57 53 49 38 35 49 40 28 29 24 15 16 6 357 7 19 12 7 18 34 32 32 44 59 24 1 318 311 339 345 339 340 346 354 359 346 323 347 30 37 7 350 309 200 124 317 317 11 5 282 267 248 242 270 292 297 297 302 305 306 305 304 304 306 308 306 305 307 309 310 311 312 312 310 311 314 318 320 322 324 325 326 327 328 330 331
62 52 47 50 52 52 55 45 22 18 12 14 24 28 24 29 33 12 358 11 32 31 24 19 3 352 350 332 313 329 338 340 337 322 316 321 305 305 341 8 29 22 332 271 259 85 7 291 340 345 274 248 219 232 282 302 304 302 305 308 308 309 308 308 310 311 309 307 307 309 311 312 313 312 311 313 315 317 320 322 324 324 325 327 328 329 329
55 44 37 51 65 56 48 37 25 19 15 22 28 33 30 23 13 7 19 32 357 338 353 354 346 343 340 327 306 300 317 331 325 297 292 301 301 320 332 311 1 34 250 251 275 63 89 60 318 277 244 223 213 266 300 306 308 309 311 312 312 312 311 312 313 312 311 310 310 312 314 316 315 313 312 312 314 316 319 322 324 324 325 325 327 328 328
52 49 49 56 43 24 22 25 21 11 18 35 33 23 8 356 348 4 23 24 267 312 336 340 335 332 327 319 304 289 299 322 323 293 287 312 312 309 311 354 26 34 239 249 332 46 58 299 279 264 236 215 234 298 310 310 311 314 315 315 316 315 314 315 316 314 312 311 312 313 316 316 314 313 313 313 315 317 319 321 322 323 322 322 324 327 328
41 18 8 25 14 1 356 8 12 17 47 53 31 348 342 351 347 342 330 284 250 280 324 324 326 328 325 319 311 292 283 298 305 285 277 307 315 349 46 38 32 227 246 314 46 63 191 231 239 238 223 223 279 306 311 309 312 318 320 318 317 317 316 317 317 316 315 315 314 315 316 315 313 313 313 313 314 316 318 319 321 322 320 320 323 327 327
17 352 302 273 342 0 350 340 7 23 48 59 58 109 339 332 303 227 260 284 264 271 308 317 324 327 321 319 317 296 268 283 304 288 283 307 324 33 82 252 253 262 330 9 42 207 237 242 243 246 254 274 295 304 307 305 308 316 320 319 318 318 319 320 319 318 317 317 315 315 315 314 312 311 311 311 312 315 316 317 319 321 320 320 324 327 326
0 356 347 276 346 1 357 319 3 22 41 212 172 160 181 240 243 215 231 271 283 298 312 316 320 322 320 319 316 288 265 296 301 273 296 341 358 52 221 253 283 14 30 352 294 286 274 261 250 250 266 290 300 301 301 302 306 312 318 320 321 321 321 322 322 320 319 318 316 315 314 313 311 310 309 309 310 312 314 316 317 318 318 320 324 327 326
352 350 18 87 358 6 17 4 344 11 185 203 206 197 204 228 242 242 260 281 290 300 310 316 319 321 323 323 309 283 290 308 283 260 8 46 331 253 269 294 349 27 41 306 278 266 251 248 253 265 286 300 303 301 298 300 303 310 318 322 323 323 324 325 324 322 321 318 316 315 314 312 311 309 309 309 309 309 311 314 315 316 316 319 322 325 326
342 339 9 60 265 350 31 194 246 262 237 233 239 241 246 258 266 271 278 285 290 300 310 316 318 317 318 314 284 269 286 330 278 255 253 129 223 285 348 15 290 221 192 230 252 247 238 259 291 302 303 303 303 299 297 298 301 309 317 321 322 324 326 326 325 324 322 318 316 315 313 312 310 308 307 308 307 307 309 311 313 315 316 317 320 324 326
328 319 345 96 191 204 207 232 255 265 262 259 258 256 258 264 271 276 281 283 288 300 311 316 315 310 305 305 279 267 292 353 281 236 212 126 290 323 357 348 284 256 209 208 225 230 252 300 311 311 307 304 301 297 296 297 301 308 315 320 324 327 328 328 327 326 321 317 315 314 312 310 309 306 306 306 305 305 306 309 312 314 314 315 318 322 326
311 300 288 146 164 209 236 257 276 278 268 262 260 259 261 265 269 272 277 282 289 300 309 315 316 302 287 314 339 301 253 222 186 208 11 11 246 217 157 257 277 275 245 217 222 249 290 308 312 310 305 301 299 298 296 297 300 306 313 319 325 328 330 329 329 327 323 319 317 314 312 311 309 306 305 305 303 303 304 306 309 311 312 313 317 321 324
284 275 239 193 208 268 257 253 270 278 273 268 263 260 263 269 270 268 270 275 283 297 311 317 318 302 284 5 15 358 259 213 167 104 351 236 204 184 195 232 238 239 227 223 245 283 305 311 311 307 303 300 298 296 294 295 298 303 310 317 323 327 329 331 330 328 325 322 319 316 313 312 309 305 304 304 302 302 304 306 307 309 310 311 314 319 322
274 263 230 217 236 255 243 232 255 274 280 283 280 272 269 271 272 271 266 262 267 287 307 283 275 56 46 14 331 282 217 182 131 123 243 232 186 142 172 224 227 232 250 273 292 305 311 312 310 306 302 300 297 294 292 293 296 300 307 313 318 324 328 330 330 330 328 325 321 318 315 312 309 306 304 302 301 301 304 305 304 305 308 310 312 316 320
262 255 243 248 258 260 254 258 273 283 284 284 285 281 274 272 273 272 262 252 250 255 245 217 159 83 62 268 246 163 136 139 338 271 253 232 194 184 209 238 255 271 288 298 304 307 308 309 308 304 300 298 296 292 290 290 293 298 304 308 313 320 326 329 331 331 330 327 325 322 317 313 309 307 304 302 301 301 303 302 301 301 304 307 309 311 315
Height
1548 1546 1545 1544 1542 1541 1539 1537 1535 1533 1531 1529 1527 1526 1525 1525 1526 1525 1523 1522 1521 1520 1526 1532 1535 1536 1539 1539 1540 1540 1540 1540 1539 1539 1539 1539 1539 1539 1539 1540 1540 1540 1541 1540 1540 1539 1537 1536 1537 1537 1539 1540 1541 1541 1541 1540 1539 1538 1536 1537 1536 1535 1535 1533 1527 1523 1524 1526 1527 1528 1528 1526 1527 1532 1538 1540 1537 1536 1534 1531 1532 1532 1530 1533 1533 1529 1539
1548 1547 1545 1544 1542 1541 1539 1537 1535 1533 1531 1530 1528 1526 1526 1526 1526 1526 1524 1522 1521 1522 1527 1532 1535 1539 1540 1539 1540 1540 1540 1540 1540 1540 1540 1540 1540 1539 1540 1541 1540 1540 1542 1541 1541 1540 1536 1536 1539 1540 1541 1541 1542 1542 1541 1540 1539 1538 1538 1538 1536 1534 1534 1534 1530 1524 1523 1523 1524 1525 1526 1529 1534 1539 1544 1545 1544 1541 1538 1538 1536 1533 1537 1543 1537 1531 1540
1548 1547 1546 1544 1543 1541 1539 1537 1536 1534 1532 1530 1528 1527 1526 1527 1526 1526 1526 1524 1522 1526 1531 1532 1535 1539 1539 1539 1541 1541 1540 1541 1541 1541 1541 1542 1542 1541 1541 1541 1541 1542 1542 1541 1542 1542 1539 1538 1540 1542 1542 1542 1542 1542 1541 1541 1540 1539 1540 1539 1538 1537 1537 1537 1534 1531 1528 1526 1528 1530 1532 1536 1540 1543 1546 1546 1545 1542 1536 1533 1531 1532 1543 1549 1540 1535 1543
1549 1547 1546 1544 1543 1541 1539 1538 1536 1534 1533 1531 1529 1528 1527 1527 1527 1528 1528 1526 1526 1529 1533 1533 1534 1538 1538 1538 1542 1542 1541 1542 1542 1542 1542 1542 1542 1542 1542 1542 1542 1542 1542 1541 1541 1543 1543 1542 1542 1544 1544 1542 1543 1542 1541 1541 1540 1540 1539 1539 1539 1539 1541 1542 1539 1538 1539 1537 1539 1541 1540 1540 1542 1545 1547 1548 1548 1547 1539 1534 1535 1541 1548 1545 1540 1544 1547
1549 1548 1546 1544 1543 1541 1540 1538 1536 1535 1533 1532 1530 1529 1528 1528 1531 1533 1531 1530 1530 1532 1535 1535 1535 1537 1538 1539 1543 1544 1542 1543 1543 1542 1543 1543 1543 1543 1544 1544 1544 1544 1544 1543 1542 1543 1545 1544 1545 1547 1548 1545 1543 1542 1542 1542 1540 1540 1539 1539 1540 1538 1539 1545 1546 1546 1548 1549 1548 1547 1544 1546 1550 1551 1551 1550 1549 1546 1542 1541 1545 1550 1549 1540 1542 1551 1550
1549 1548 1546 1545 1543 1542 1540 1539 1537 1536 1534 1533 1531 1530 1530 1530 1533 1536 1535 1534 1536 1537 1537 1538 1539 1539 1540 1543 1546 1545 1544 1545 1545 1544 1544 1544 1545 1544 1544 1547 1549 1549 1549 1546 1545 1545 1544 1544 1547 1550 1550 1548 1545 1542 1542 1542 1540 1541 1540 1540 1541 1539 1539 1547 1549 1548 1551 1551 1550 1549 1549 1552 1556 1556 1554 1554 1551 1547 1547 1550 1552 1554 1550 1543 1545 1552 1550
1550 1549 1547 1546 1544 1543 1541 1540 1538 1537 1535 1534 1533 1531 1532 1533 1534 1536 1536 1537 1540 1541 1540 1541 1541 1541 1542 1544 1547 1547 1547 1548 1549 1549 1547 1545 1547 1546 1546 1549 1551 1551 1550 1548 1547 1548 1546 1545 1549 1551 1551 1551 1549 1546 1544 1543 1542 1542 1541 1542 1543 1541 1542 1548 1549 1546 1549 1551 1551 1551 1551 1553 1557 1558 1556 1556 1554 1552 1552 1553 1553 1554 1551 1548 1550 1553 1552
1551 1550 1548 1547 1546 1544 1543 1541 1539 1538 1536 1535 1534 1533 1533 1534 1535 1536 1536 1538 1541 1542 1542 1541 1541 1543 1544 1545 1549 1551 1550 1550 1551 1552 1550 1548 1549 1549 1549 1552 1552 1551 1551 1548 1550 1553 1551 1550 1551 1553 1553 1552 1553 1552 1550 1548 1545 1542 1543 1545 1543 1540 1542 1550 1550 1544 1545 1551 1552 1553 1553 1552 1555 1558 1558 1557 1555 1555 1555 1554 1554 1554 1551 1550 1553 1553 1552
1552 1551 1550 1548 1547 1545 1543 1542 1540 1539 1537 1536 1535 1534 1535 1535 1535 1536 1536 1540 1543 1543 1543 1543 1542 1545 1549 1550 1551 1552 1552 1552 1552 1553 1553 1552 1552 1552 1552 1552 1552 1551 1551 1551 1552 1554 1554 1553 1554 1554 1554 1554 1554 1553 1553 1553 1548 1545 1547 1547 1545 1543 1544 1549 1549 1539 1540 1550 1552 1552 1555 1553 1551 1555 1558 1558 1557 1556 1557 1556 1556 1555 1553 1553 1553 1552 1553
1554 1553 1551 1550 1548 1546 1545 1543 1541 1540 1538 1537 1536 1536 1536 1536 1536 1536 1536 1541 1546 1546 1545 1545 1544 1549 1554 1554 1553 1553 1552 1553 1552 1551 1553 1553 1553 1553 1552 1551 1551 1551 1552 1553 1554 1555 1554 1555 1554 1554 1554 1555 1555 1554 1554 1553 1550 1549 1550 1549 1552 1552 1546 1547 1550 1540 1538 1549 1553 1554 1553 1545 1544 1554 1560 1560 1559 1558 1558 1558 1556 1556 1556 1555 1555 1555 1556
1555 1554 1552 1551 1549 1547 1546 1544 1543 1541 1540 1539 1538 1537 1537 1536 1537 1537 1536 1541 1548 1548 1547 1548 1549 1553 1556 1555 1554 1554 1553 1553 1552 1551 1552 1553 1553 1552 1552 1551 1551 1552 1554 1555 1555 1555 1555 1555 1555 1555 1555 1554 1555 1554 1553 1553 1552 1552 1551 1550 1554 1556 1549 1550 1555 1546 1539 1548 1555 1553 1545 1537 1543 1559 1563 1560 1560 1560 1560 1558 1557 1557 1557 1558 1558 1558 1558
1556 1555 1553 1552 1550 1549 1547 1546 1544 1543 1541 1540 1539 1538 1538 1537 1537 1537 1536 1542 1550 1551 1550 1553 1555 1555 1556 1555 1554 1554 1553 1552 1552 1551 1552 1553 1553 1553 1553 1552 1552 1554 1556 1556 1556 1556 1556 1556 1556 1556 1555 1554 1554 1554 1553 1553 1553 1553 1552 1550 1551 1552 1550 1553 1558 1553 1546 1550 1551 1539 1532 1540 1555 1563 1561 1559 1560 1560 1559 1558 1558 1559 1559 1560 1560 1559 1558
1557 1556 1554 1553 1551 1550 1549 1547 1546 1544 1543 1542 1541 1540 1539 1538 1538 1538 1537 1542 1553 1556 1553 1556 1558 1556 1555 1555 1553 1553 1553 1552 1552 1552 1553 1554 1554 1555 1554 1554 1554 1555 1556 1556 1556 1556 1556 1558 1558 1557 1556 1555 1554 1554 1554 1555 1556 1554 1553 1553 1551 1550 1550 1552 1557 1555 1550 1553 1551 1539 1538 1554 1563 1561 1560 1561 1560 1560 1559 1557 1559 1561 1561 1561 1561 1560 1559
1558 1557 1556 1554 1553 1551 1550 1548 1547 1546 1544 1543 1542 1541 1540 1539 1539 1539 1538 1543 1554 1560 1556 1555 1557 1557 1555 1555 1554 1553 1553 1553 1552 1553 1554 1555 1556 1556 1555 1555 1555 1555 1556 1556 1556 1556 1557 1558 1558 1557 1556 1555 1553 1553 1556 1558 1558 1557 1556 1555 1554 1553 1553 1552 1554 1557 1558 1559 1557 1551 1548 1555 1560 1562 1565 1566 1564 1565 1564 1561 1560 1561 1561 1562 1561 1559 1558
1559 1558 1557 1555 1554 1553 1551 1550 1548 1547 1546 1544 1543 1542 1542 1541 1540 1540 1539 1542 1550 1557 1558 1557 1558 1558 1557 1556 1555 1554 1553 1554 1554 1555 1556 1556 1556 1556 1556 1556 1556 1555 1556 1556 1556 1557 1557 1556 1557 1556 1556 1556 1556 1555 1556 1557 1558 1559 1559 1559 1557 1556 1557 1555 1554 1560 1566 1562 1557 1552 1544 1545 1558 1567 1568 1567 1566 1566 1566 1565 1562 1560 1561 1561 1560 1559 1557
1561 1559 1558 1557 1555 1554 1552 1551 1549 1548 1547 1546 1545 1544 1543 1542 1541 1541 1541 1541 1544 1553 1560 1560 1560 1559 1558 1557 1557 1556 1556 1557 1556 1556 1556 1556 1557 1557 1557 1556 1556 1556 1556 1556 1556 1558 1557 1557 1560 1560 1559 1562 1562 1558 1558 1560 1560 1558 1558 1560 1559 1559 1562 1561 1558 1564 1571 1566 1560 1557 1549 1549 1563 1570 1567 1566 1566 1564 1565 1562 1557 1558 1562 1560 1559 1558 1556
1562 1561 1559 1558 1556 1555 1554 1552 1551 1550 1548 1547 1546 1545 1544 1543 1542 1542 1543 1541 1545 1556 1563 1561 1559 1560 1559 1558 1559 1559 1558 1559 1558 1557 1557 1557 1558 1558 1557 1557 1556 1556 1556 1556 1557 1558 1557 1560 1563 1562 1563 1567 1566 1561 1562 1566 1565 1561 1559 1561 1562 1562 1565 1565 1563 1569 1577 1574 1566 1560 1556 1559 1568 1569 1566 1565 1564 1563 1563 1556 1551 1557 1562 1559 1557 1558 1555
1563 1561 1560 1559 1557 1556 1555 1554 1552 1551 1550 1549 1548 1546 1545 1545 1544 1544 1545 1543 1547 1559 1564 1562 1560 1562 1561 1561 1561 1560 1560 1560 1559 1559 1559 1558 1559 1559 1558 1558 1557 1556 1556 1558 1558 1558 1560 1564 1567 1565 1564 1567 1567 1564 1566 1570 1571 1572 1572 1570 1570 1571 1573 1574 1573 1574 1578 1578 1569 1560 1558 1564 1569 1567 1565 1564 1562 1562 1561 1556 1555 1559 1560 1557 1557 1557 1554
1564 1562 1561 1560 1559 1557 1557 1555 1554 1553 1552 1550 1549 1548 1547 1546 1545 1546 1547 1545 1548 1558 1564 1563 1562 1563 1562 1562 1563 1562 1562 1562 1561 1561 1560 1559 1560 1560 1559 1559 1558 1557 1557 1558 1560 1564 1564 1567 1573 1573 1568 1567 1569 1570 1572 1574 1575 1578 1580 1577 1576 1576 1578 1579 1578 1577 1580 1585 1579 1564 1558 1565 1569 1566 1564 1564 1563 1562 1560 1560 1561 1561 1558 1558 1557 1555 1554
1565 1564 1562 1561 1560 1559 1558 1557 1555 1555 1553 1551 1551 1550 1548 1549 1548 1548 1549 1548 1549 1558 1565 1565 1564 1564 1564 1564 1563 1563 1563 1562 1562 1562 1562 1561 1561 1559 1558 1559 1559 1560 1560 1558 1562 1568 1567 1567 1573 1575 1571 1572 1575 1574 1575 1579 1580 1581 1582 1581 1582 1581 1578 1576 1578 1580 1582 1583 1575 1561 1556 1564 1569 1566 1564 1564 1565 1565 1563 1562 1562 1560 1559 1558 1555 1554 1554
1566 1565 1564 1563 1562 1561 1560 1559 1557 1556 1555 1553 1553 1552 1550 1551 1551 1550 1551 1550 1549 1556 1565 1567 1566 1566 1566 1565 1565 1564 1564 1564 1563 1563 1563 1563 1561 1559 1560 1563 1563 1563 1564 1563 1564 1569 1570 1570 1574 1574 1572 1575 1576 1574 1577 1579 1578 1581 1584 1582 1582 1584 1581 1578 1580 1583 1581 1575 1567 1561 1562 1567 1568 1567 1566 1566 1565 1565 1564 1562 1561 1559 1558 1556 1554 1553 1552
1567 1566 1565 1564 1563 1562 1561 1560 1559 1558 1557 1555 1555 1554 1552 1553 1553 1553 1554 1553 1551 1557 1566 1568 1567 1568 1567 1567 1567 1566 1566 1565 1565 1564 1564 1563 1563 1563 1564 1566 1566 1565 1567 1566 1566 1567 1569 1571 1573 1573 1574 1576 1576 1580 1585 1580 1574 1579 1583 1580 1579 1582 1582 1580 1580 1581 1579 1573 1567 1566 1567 1568 1567 1566 1566 1565 1564 1564 1563 1562 1560 1558 1557 1555 1553 1552 1550
1568 1568 1567 1566 1565 1564 1563 1562 1561 1560 1559 1558 1557 1556 1554 1555 1556 1556 1557 1556 1555 1560 1567 1569 1568 1569 1569 1569 1569 1568 1568 1567 1566 1566 1565 1565 1565 1565 1566 1566 1566 1566 1567 1566 1566 1566 1567 1569 1571 1572 1575 1578 1577 1580 1584 1581 1577 1580 1582 1579 1580 1581 1582 1582 1581 1580 1577 1571 1567 1567 1567 1566 1566 1565 1564 1564 1563 1562 1561 1560 1558 1557 1555 1553 1552 1550 1548
1570 1569 1568 1567 1567 1566 1565 1564 1563 1562 1561 1560 1559 1558 1557 1557 1558 1558 1558 1558 1558 1561 1567 1570 1571 1571 1571 1571 1571 1570 1570 1569 1568 1568 1567 1566 1566 1566 1566 1567 1566 1566 1567 1566 1566 1567 1566 1569 1572 1571 1573 1578 1578 1577 1577 1577 1578 1581 1580 1579 1581 1581 1580 1581 1581 1580 1576 1569 1566 1567 1567 1565 1565 1564 1563 1563 1562 1560 1559 1558 1556 1555 1553 1552 1550 1548 1546
1571 1571 1570 1569 1568 1568 1567 1566 1565 1564 1563 1562 1561 1561 1560 1560 1560 1560 1560 1560 1559 1561 1567 1573 1574 1573 1574 1574 1573 1572 1572 1571 1570 1570 1569 1568 1568 1567 1567 1568 1567 1567 1567 1566 1567 1567 1566 1568 1571 1571 1572 1576 1578 1578 1578 1577 1577 1580 1579 1578 1579 1580 1579 1580 1579 1579 1577 1569 1565 1566 1565 1563 1563 1562 1561 1561 1560 1558 1557 1556 1554 1553 1552 1550 1548 1546 1544
1573 1572 1571 1570 1570 1569 1568 1568 1567 1566 1565 1565 1564 1564 1563 1562 1562 1562 1562 1562 1562 1563 1568 1574 1577 1576 1575 1575 1574 1574 1574 1573 1572 1571 1570 1569 1569 1568 1568 1569 1568 1568 1568 1567 1567 1568 1567 1569 1572 1573 1574 1576 1576 1578 1580 1578 1577 1579 1579 1577 1577 1578 1578 1578 1578 1577 1575 1569 1566 1566 1564 1561 1561 1561 1560 1559 1558 1557 1555 1554 1552 1551 1549 1548 1546 1544 1542
1575 1574 1573 1572 1572 1571 1570 1570 1569 1568 1568 1567 1566 1566 1565 1564 1564 1564 1563 1563 1563 1564 1569 1575 1578 1577 1577 1576 1576 1575 1575 1574 1573 1573 1572 1571 1570 1570 1569 1569 1569 1569 1568 1568 1568 1568 1568 1570 1572 1574 1575 1576 1577 1578 1579 1579 1579 1580 1578 1576 1576 1577 1576 1577 1577 1576 1572 1568 1567 1567 1565 1562 1561 1560 1559 1557 1556 1555 1553 1552 1551 1549 1547 1546 1543 1541 1539
1576 1576 1575 1574 1573 1573 1572 1571 1571 1570 1570 1569 1569 1568 1568 1566 1566 1566 1565 1564 1564 1565 1569 1574 1577 1577 1577 1578 1577 1577 1576 1576 1575 1574 1573 1572 1571 1571 1570 1570 1570 1569 1569 1569 1569 1569 1570 1571 1573 1575 1576 1576 1576 1578 1579 1579 1579 1578 1575 1573 1573 1573 1573 1574 1575 1573 1570 1567 1566 1567 1566 1563 1560 1559 1557 1555 1554 1553 1551 1550 1549 1547 1545 1543 1541 1539 1537
1578 1577 1576 1576 1575 1574 1574 1573 1572 1572 1572 1571 1571 1570 1569 1568 1568 1567 1567 1567 1567 1566 1568 1572 1576 1578 1578 1579 1579 1578 1577 1577 1576 1575 1575 1574 1573 1572 1571 1571 1570 1570 1570 1569 1569 1570 1572 1573 1574 1576 1576 1576 1576 1577 1579 1580 1578 1573 1569 1569 1570 1570 1569 1570 1570 1569 1567 1565 1565 1564 1563 1561 1559 1557 1555 1553 1552 1551 1549 1548 1547 1545 1544 1542 1539 1537 1535
1579 1579 1578 1577 1577 1576 1575 1575 1574 1573 1573 1572 1572 1571 1570 1570 1570 1569 1569 1569 1569 1568 1568 1571 1576 1579 1580 1579 1579 1579 1578 1578 1577 1576 1576 1575 1574 1573 1573 1572 1572 1571 1570 1570 1570 1571 1573 1574 1575 1575 1575 1576 1576 1577 1579 1582 1579 1570 1566 1567 1568 1567 1567 1567 1567 1566 1565 1563 1563 1562 1560 1559 1557 1555 1553 1551 1550 1549 1548 1546 1545 1544 1542 1540 1538 1536 1534
1580 1580 1579 1579 1578 1577 1577 1576 1575 1575 1574 1573 1573 1572 1572 1572 1572 1572 1571 1570 1570 1570 1570 1572 1576 1579 1580 1580 1580 1579 1579 1578 1578 1577 1577 1576 1575 1575 1574 1573 1572 1572 1571 1571 1571 1572 1574 1574 1575 1575 1575 1576 1576 1576 1579 1580 1575 1567 1565 1566 1566 1565 1566 1565 1565 1564 1563 1562 1561 1559 1558 1557 1555 1553 1552 1550 1548 1547 1546 1544 1543 1542 1540 1538 1537 1535 1533
1582 1581 1581 1580 1580 1579 1578 1578 1577 1577 1576 1575 1574 1573 1574 1575 1574 1573 1572 1572 1571 1571 1571 1573 1576 1579 1580 1580 1580 1580 1579 1578 1578 1577 1577 1576 1575 1575 1574 1573 1573 1572 1572 1572 1572 1573 1574 1575 1575 1575 1575 1575 1576 1577 1578 1577 1571 1566 1564 1564 1564 1564 1564 1564 1563 1563 1562 1560 1559 1557 1555 1555 1554 1552 1550 1548 1546 1545 1544 1543 1541 1540 1538 1537 1535 1533 1531
1583 1582 1582 1581 1581 1580 1580 1579 1579 1579 1578 1577 1576 1576 1576 1576 1575 1574 1574 1573 1573 1572 1572 1573 1577 1580 1580 1580 1580 1580 1579 1579 1578 1577 1577 1576 1575 1575 1574 1574 1573 1573 1573 1573 1573 1574 1574 1575 1575 1575 1575 1575 1575 1577 1576 1572 1566 1563 1563 1563 1563 1563 1563 1562 1562 1561 1560 1559 1558 1556 1553 1552 1551 1550 1548 1546 1545 1543 1542 1541 1540 1538 1537 1535 1533 1532 1530
1584 1583 1583 1582 1582 1582 1581 1581 1580 1580 1579 1578 1578 1577 1577 1577 1576 1575 1575 1574 1574 1573 1573 1574 1577 1580 1580 1580 1580 1580 1579 1579 1578 1577 1577 1576 1575 1575 1574 1574 1573 1573 1573 1573 1574 1574 1574 1575 1575 1575 1575 1575 1576 1575 1571 1565 1562 1562 1562 1562 1562 1561 1561 1561 1560 1559 1558 1557 1555 1554 1552 1551 1549 1548 1546 1544 1543 1542 1541 1540 1538 1536 1535 1533 1532 1530 1528
1584 1584 1584 1583 1583 1583 1582 1582 1581 1581 1581 1580 1579 1579 1579 1579 1578 1577 1576 1575 1575 1575 1575 1576 1579 1581 1581 1580 1580 1580 1579 1579 1578 1577 1577 1576 1575 1575 1574 1574 1573 1573 1573 1573 1574 1574 1574 1575 1574 1574 1575 1575 1574 1571 1566 1562 1561 1561 1561 1560 1560 1560 1560 1559 1558 1557 1556 1554 1553 1552 1550 1549 1547 1545 1544 1543 1542 1540 1539 1538 1536 1534 1532 1531 1529 1528 1526
1585 1585 1584 1584 1584 1583 1583 1583 1582 1582 1581 1581 1580 1580 1580 1580 1579 1579 1578 1577 1576 1576 1577 1579 1582 1584 1584 1582 1581 1580 1579 1579 1578 1577 1576 1575 1575 1574 1574 1573 1573 1574 1574 1573 1574 1574 1575 1574 1574 1574 1575 1573 1567 1563 1561 1560 1560 1560 1559 1559 1559 1559 1557 1556 1556 1554 1553 1552 1551 1549 1548 1546 1545 1543 1542 1541 1540 1538 1537 1535 1534 1532 1530 1529 1527 1526 1524
1586 1585 1585 1585 1584 1584 1584 1583 1583 1582 1582 1582 1581 1581 1581 1580 1580 1580 1579 1578 1577 1578 1578 1580 1583 1586 1586 1585 1583 1582 1580 1578 1578 1577 1576 1576 1575 1574 1574 1574 1574 1574 1573 1573 1573 1574 1574 1574 1574 1573 1571 1566 1560 1558 1559 1559 1558 1558 1558 1557 1557 1557 1556 1555 1554 1552 1551 1549 1548 1547 1546 1544 1542 1541 1540 1538 1537 1536 1534 1533 1531 1529 1527 1526 1524 1523 1521
1586 1586 1586 1585 1585 1584 1584 1584 1583 1583 1583 1582 1582 1581 1581 1580 1580 1580 1579 1579 1579 1580 1580 1582 1584 1586 1586 1585 1584 1582 1580 1580 1579 1577 1576 1576 1575 1574 1574 1574 1574 1574 1574 1574 1574 1574 1574 1575 1577 1575 1567 1559 1557 1557 1558 1557 1557 1556 1556 1556 1555 1555 1554 1552 1551 1550 1548 1547 1545 1544 1543 1542 1540 1539 1538 1536 1534 1533 1532 1530 1528 1527 1525 1524 1522 1521 1519
1587 1586 1586 1586 1585 1585 1584 1584 1584 1583 1583 1582 1582 1582 1581 1581 1580 1580 1581 1581 1581 1582 1583 1584 1585 1586 1586 1585 1584 1582 1581 1581 1580 1578 1577 1577 1575 1574 1575 1575 1574 1575 1574 1572 1573 1573 1571 1572 1577 1576 1565 1556 1556 1556 1555 1556 1556 1555 1554 1554 1553 1552 1552 1550 1549 1548 1546 1544 1543 1542 1541 1539 1537 1536 1535 1533 1532 1530 1529 1527 1526 1525 1523 1522 1521 1519 1517
1587 1587 1587 1586 1586 1585 1585 1584 1584 1583 1583 1583 1582 1582 1582 1581 1582 1583 1584 1583 1584 1584 1585 1585 1586 1586 1585 1585 1584 1583 1582 1581 1580 1580 1579 1578 1576 1576 1576 1575 1574 1575 1573 1571 1572 1574 1571 1571 1574 1572 1560 1552 1554 1555 1554 1554 1554 1553 1552 1552 1551 1550 1549 1548 1546 1545 1544 1542 1541 1540 1538 1537 1535 1534 1532 1531 1530 1528 1527 1526 1524 1523 1521 1520 1519 1517 1515
1588 1588 1587 1586 1586 1586 1585 1585 1584 1584 1583 1583 1582 1583 1584 1584 1585 1586 1586 1585 1585 1586 1586 1586 1586 1585 1585 1585 1584 1583 1582 1581 1580 1580 1579 1578 1577 1576 1575 1575 1575 1575 1572 1571 1573 1574 1572 1571 1571 1565 1555 1551 1553 1553 1552 1552 1552 1551 1550 1550 1549 1548 1547 1545 1543 1542 1541 1539 1538 1537 1536 1534 1533 1531 1530 1529 1528 1526 1525 1524 1523 1521 1520 1518 1517 1516 1514
1588 1588 1587 1587 1587 1586 1585 1585 1584 1583 1583 1583 1583 1586 1588 1588 1587 1587 1587 1586 1586 1587 1587 1586 1586 1585 1585 1584 1583 1582 1581 1581 1580 1580 1579 1578 1577 1576 1576 1578 1577 1573 1569 1570 1574 1574 1572 1569 1564 1557 1552 1551 1552 1551 1550 1550 1550 1549 1548 1548 1547 1545 1544 1543 1541 1540 1539 1537 1536 1535 1533 1532 1531 1529 1528 1527 1525 1524 1523 1522 1521 1520 1519 1517 1516 1514 1512
1588 1588 1587 1587 1587 1586 1585 1585 1584 1584 1586 1586 1586 1587 1589 1589 1589 1590 1589 1588 1587 1587 1587 1586 1586 1585 1584 1583 1583 1582 1581 1580 1580 1580 1579 1578 1577 1577 1577 1577 1575 1572 1571 1573 1574 1571 1567 1563 1556 1551 1550 1550 1550 1549 1549 1549 1548 1547 1547 1546 1545 1544 1542 1541 1539 1538 1537 1535 1534 1532 1531 1530 1529 1527 1526 1525 1524 1522 1521 1520 1519 1518 1517 1516 1515 1513 1511
1588 1588 1587 1587 1587 1586 1585 1585 1585 1585 1587 1590 1590 1589 1588 1589 1590 1591 1589 1587 1586 1587 1586 1586 1585 1584 1584 1583 1582 1581 1581 1580 1580 1580 1579 1578 1578 1578 1575 1572 1571 1571 1571 1572 1571 1570 1566 1560 1553 1549 1549 1550 1548 1548 1548 1547 1546 1546 1545 1544 1543 1542 1540 1539 1537 1536 1534 1533 1532 1530 1529 1528 1526 1525 1524 1523 1522 1521 1520 1518 1517 1516 1515 1514 1513 1511 1510
1588 1588 1587 1587 1587 1586 1584 1585 1587 1587 1587 1590 1592 1591 1590 1589 1588 1589 1588 1586 1586 1586 1586 1585 1585 1584 1583 1582 1581 1581 1581 1581 1580 1579 1579 1579 1578 1576 1574 1572 1573 1574 1573 1572 1569 1566 1561 1555 1550 1547 1548 1548 1547 1546 1546 1545 1544 1544 1543 1542 1541 1540 1538 1537 1535 1534 1533 1531 1530 1528 1527 1526 1524 1523 1522 1521 1520 1519 1518 1517 1516 1514 1513 1512 1511 1509 1508
1588 1588 1587 1587 1587 1587 1587 1588 1589 1588 1588 1589 1590 1589 1588 1587 1587 1587 1587 1586 1585 1585 1584 1584 1584 1583 1582 1582 1581 1580 1580 1580 1579 1579 1580 1579 1576 1574 1574 1574 1573 1571 1570 1568 1563 1555 1549 1547 1547 1547 1547 1546 1545 1545 1544 1543 1543 1542 1541 1540 1539 1538 1536 1535 1533 1532 1531 1529 1528 1527 1525 1524 1522 1521 1520 1518 1518 1517 1516 1515 1514 1513 1511 1510 1509 1508 1506
1588 1588 1587 1586 1587 1589 1589 1588 1588 1587 1587 1587 1587 1586 1586 1586 1586 1586 1585 1585 1584 1584 1584 1583 1583 1582 1582 1582 1581 1580 1580 1581 1580 1579 1579 1578 1576 1575 1576 1575 1571 1568 1564 1559 1552 1548 1547 1547 1546 1545 1545 1544 1543 1543 1542 1541 1541 1540 1539 1538 1537 1536 1535 1533 1532 1530 1529 1528 1526 1525 1524 1522 1521 1519 1518 1517 1515 1514 1513 1513 1512 1511 1510 1508 1507 1506 1504
1588 1588 1587 1587 1587 1588 1588 1587 1587 1587 1586 1586 1585 1585 1585 1585 1584 1584 1584 1584 1584 1583 1583 1582 1582 1581 1581 1582 1581 1580 1580 1580 1578 1578 1579 1578 1575 1573 1571 1569 1567 1566 1563 1555 1548 1546 1546 1546 1544 1543 1543 1542 1541 1541 1540 1539 1539 1538 1537 1536 1536 1534 1533 1532 1530 1528 1527 1526 1524 1523 1522 1521 1519 1518 1516 1515 1514 1512 1511 1510 1509 1509 1507 1506 1505 1504 1502
1589 1588 1587 1587 1587 1588 1587 1587 1586 1586 1585 1584 1584 1584 1583 1583 1583 1583 1583 1583 1583 1582 1582 1582 1581 1581 1580 1581 1581 1580 1580 1579 1577 1578 1579 1577 1573 1571 1569 1565 1560 1556 1554 1551 1548 1545 1544 1544 1543 1542 1541 1540 1539 1539 1538 1537 1537 1536 1536 1535 1534 1533 1531 1530 1528 1527 1525 1524 1522 1521 1520 1519 1517 1516 1514 1513 1512 1511 1509 1508 1507 1506 1505 1504 1503 1501 1500
1588 1587 1586 1586 1585 1586 1586 1586 1586 1584 1583 1583 1583 1582 1582 1582 1581 1582 1582 1582 1582 1581 1581 1581 1581 1580 1581 1581 1580 1579 1578 1578 1578 1577 1575 1571 1571 1572 1570 1563 1555 1549 1546 1546 1545 1544 1542 1541 1541 1539 1538 1538 1537 1536 1536 1535 1535 1534 1533 1533 1532 1531 1529 1528 1526 1525 1523 1522 1520 1519 1518 1517 1515 1514 1513 1511 1510 1509 1508 1506 1505 1504 1503 1502 1501 1499 1498
1587 1586 1585 1585 1584 1584 1584 1584 1583 1583 1582 1582 1581 1581 1581 1580 1580 1580 1581 1581 1581 1581 1581 1581 1581 1581 1581 1579 1576 1575 1575 1577 1578 1577 1572 1569 1571 1571 1564 1554 1548 1546 1544 1542 1542 1542 1540 1539 1538 1537 1536 1536 1535 1534 1534 1533 1533 1532 1531 1531 1530 1529 1527 1526 1524 1523 1521 1520 1518 1517 1516 1514 1513 1512 1511 1509 1508 1507 1506 1505 1503 1502 1501 1500 1498 1497 1496
1586 1585 1584 1584 1584 1583 1583 1583 1582 1581 1581 1581 1580 1580 1580 1579 1579 1579 1579 1579 1579 1580 1580 1580 1581 1581 1579 1576 1575 1575 1576 1575 1574 1572 1567 1564 1564 1561 1554 1546 1543 1543 1541 1540 1540 1539 1538 1537 1536 1535 1534 1533 1533 1532 1532 1531 1530 1530 1529 1528 1527 1527 1525 1524 1522 1521 1519 1518 1516 1515 1514 1512 1511 1510 1508 1507 1506 1505 1504 1503 1502 1500 1499 1498 1497 1495 1494